971  
ASUS43 KARX 080859  
RWRARX  
 
HOURLY WEATHER FOR THE UPPER MISSISSIPPI RIVER VALLEY  
NATIONAL WEATHER SERVICE LA CROSSE WI  
300 AM CST THU DEC 08 2022  
 
NOTE: "FAIR" INDICATES FEW OR NO CLOUDS BELOW 12,000 FEET WITH NO  
SIGNIFICANT WEATER AND/OR S TO VISIBILITY
.  
 
MNZ077-085>088-093>096-081000  
SOUTHEAST MINNESOTA  
 
CITY SKY/WX TMP DP RH WIND PRES REMARKS
 
ROCHESTER CLEAR 11 6 81 E6 30.38R WCI 1  
WINONA CLEAR 14 10 85 CALM 30.45S  
AUSTIN CLEAR 12 9 85 CALM 30.37S  
ALBERT LEA CLEAR 10 9 92 SE3 30.37S  
DODGE CENTER CLEAR 9 7 92 CALM 30.37S  
PRESTON CLEAR 12 9 89 CALM 30.38F  
OWATONNA CLEAR 9 7 92 E3 30.38S  
FARIBAULT CLEAR 1 -2 85 CALM 30.39F  

 
 
WIZ041-042-053>056-061-081000  
SOUTHWEST WISCONSIN  
 
CITY SKY/WX TMP DP RH WIND PRES REMARKS
 
LA CROSSE MOCLDY 15 11 83 CALM 30.44S  
SPARTA NOT AVBL  
VIROQUA PTCLDY 18 18 100 NE5 30.39S WCI 11  
WIS DELLS CLOUDY 25 22 89 NE7 30.41F WCI 18  
PRAIRIE DU CHI CLEAR 16 13 88 CALM 30.43S  
BOSCOBEL CLEAR 16 13 88 CALM 30.43S  
LONE ROCK NOT AVBL  
PLATTEVILLE FAIR 22 19 89 NE6 30.38F WCI 15  

 
 
WIZ017-030-034>036-043>045-081000  
CENTRAL WISCONSIN  
 
CITY SKY/WX TMP DP RH WIND PRES REMARKS
 
MEDFORD CLEAR 5 4 95 E5 30.39F WCI -4  
WAUSAU CLOUDY 15 8 73 E5 30.41F WCI 8  
BLACK RVR FLS CLOUDY 5 2 88 CALM 30.44S  
WIS RAPIDS CLOUDY 23 16 74 N5 30.43F WCI 17  
MARSHFIELD PTCLDY 13 10 88 NE6 30.41S WCI 4  
MAUSTON CLOUDY 24 19 83 CALM 30.43R  
CAMP DOUGLAS NOT AVBL  
WAUTOMA CLOUDY 24 19 81 NE3 30.45S  

 
 
IAZ008>011-017>019-029-030-081000  
NORTHEAST IOWA  
 
CITY SKY/WX TMP DP RH WIND PRES REMARKS
 
WATERLOO CLOUDY 20 16 84 E5 30.39S WCI 13  
DUBUQUE PTCLDY 24 22 91 NE10 30.36F WCI 14  
DECORAH CLEAR 16 14 93 NE7 30.37F WCI 6  
MASON CITY CLEAR 11 8 88 NE5 30.37F WCI 3  
CHARLES CITY CLEAR 16 16 100 E5 30.38R WCI 9  
OELWEIN CLOUDY 18 18 100 E6 30.38S WCI 9  

 
 
WIND SPEEDS ARE IN MILES PER HOUR.  
 
ABBREVIATIONS USED IN THE REMARKS:  
VSB - VISIBILITY IN STATUTE MILES  
WCI - WIND CHILL INDEX  
HX - HEAT INDEX  
 
 
CLICK HERE TO GO TO PREVIOUS BULLETINS.

The Nexlab WI Page
The Nexlab IA Page
The Nexlab MN Page Main Text Page